VK1ET-13 Weather Reports


time (UTC)temp
C
wind
direction
speed
KPH
gust
KPH
rain 1hr
cm
rain 24hr
cm
rain mn
cm
humidity
%
barometer
mb
20260904003521 13 333 6.4 14.5 0.00 0.00 0.00 71 1020.8
20260904002528 13 315 9.7 17.7 0.00 0.00 0.00 65 1021.0
20260904001535 13 316 8.0 12.9 0.00 0.00 0.00 69 1021.0
20260904000521 12 329 3.2 11.3 0.00 0.00 0.00 74 1021.2
20260903235529 11 332 6.4 11.3 0.00 0.00 0.00 79 1021.6
20260903234534 11 322 6.4 11.3 0.00 0.00 0.00 82 1021.7
20260903233526 11 321 6.4 16.1 0.00 0.00 0.00 84 1021.9
20260903232534 11 320 11.3 16.1 0.00 0.00 0.00 85 1021.8
20260903231533 11 348 6.4 11.3 0.00 0.00 0.00 86 1021.7
20260903230518 11 328 8.0 17.7 0.00 0.00 0.00 85 1021.7
20260903225523 10 335 8.0 14.5 0.00 0.00 0.00 87 1021.8
20260903224529 10 327 8.0 14.5 0.00 0.00 0.00 88 1021.6
20260903223524 9 306 4.8 11.3 0.00 0.00 0.00 90 1021.6
20260903222529 10 308 6.4 9.7 0.00 0.00 0.00 88 1021.7
20260903221535 9 296 6.4 12.9 0.00 0.00 0.00 88 1021.5
20260903220520 10 305 6.4 12.9 0.00 0.00 0.00 87 1021.5
20260903215528 9 349 1.6 4.8 0.00 0.00 0.00 88 1021.2
20260903214533 10 330 4.8 9.7 0.00 0.00 0.00 87 1020.7
20260903213519 9 7 3.2 6.4 0.00 0.00 0.00 90 1020.4
20260903212523 8 10 3.2 6.4 0.00 0.00 0.00 92 1020.7
20260903211529 9 24 3.2 6.4 0.00 0.00 0.00 93 1020.5
20260903210536 9 13 1.6 1.6 0.00 0.00 0.00 93 1020.3
20260903205529 9 335 1.6 4.8 0.00 0.00 0.00 93 1020.3
20260903205020 9 332 1.6 4.8 0.00 0.00 0.00 93 1020.1
20260903204535 9 345 1.6 4.8 0.00 0.00 0.00 94 1020.0
20260903203520 8 355 1.6 4.8 0.00 0.00 0.00 94 1020.2
20260903202527 8 17 1.6 4.8 0.00 0.00 0.00 94 1020.1
20260903201534 8 199 0.0 3.2 0.00 0.00 0.00 94 1019.9
20260903201018 8 16 1.6 4.8 0.00 0.00 0.00 93 1019.9
20260903200024 8 19 3.2 4.8 0.00 0.00 0.00 93 1020.0
20260903195521 8 360 1.6 4.8 0.00 0.00 0.00 93 1020.0
20260903194535 8 349 3.2 4.8 0.00 0.00 0.00 93 1019.9
20260903194033 8 354 3.2 4.8 0.00 0.00 0.00 93 1019.7
20260903193019 8 3 3.2 6.4 0.00 0.00 0.00 93 1019.6
20260903192027 8 12 3.2 4.8 0.00 0.00 0.00 93 1019.6
20260903191033 8 7 1.6 4.8 0.00 0.00 0.00 93 1019.5
20260903154519 11 7 3.2 6.4 0.00 0.00 0.00 82 1019.0
20260903153535 12 340 3.2 9.7 0.00 0.00 0.00 71 1019.1
20260903152517 11 262 6.4 11.3 0.00 0.00 0.00 71 1019.0
20260903151526 11 281 4.8 9.7 0.00 0.00 0.00 74 1019.0
20260903150534 11 325 4.8 9.7 0.00 0.00 0.00 77 1019.2
20260903145522 11 284 3.2 4.8 0.00 0.00 0.00 78 1019.1
20260903144537 11 335 6.4 14.5 0.00 0.00 0.00 79 1019.2
20260903143518 11 322 3.2 6.4 0.00 0.00 0.00 78 1019.1
20260903142524 11 294 4.8 11.3 0.00 0.00 0.00 78 1019.2
20260903141531 11 281 4.8 9.7 0.00 0.00 0.00 77 1019.2
20260903140535 11 305 4.8 14.5 0.00 0.00 0.00 76 1019.3
20260903135522 11 276 4.8 12.9 0.00 0.00 0.00 74 1019.2
20260903134528 11 217 3.2 8.0 0.00 0.00 0.00 72 1019.2
20260903133534 12 242 3.2 8.0 0.00 0.00 0.00 69 1019.3
20260903132519 12 288 3.2 8.0 0.00 0.00 0.00 68 1019.3
20260903131534 12 287 4.8 11.3 0.00 0.00 0.00 67 1019.3
20260903130531 12 281 6.4 14.5 0.00 0.00 0.00 66 1019.3
20260903125518 12 268 6.4 17.7 0.00 0.00 0.00 68 1019.3
20260903124529 12 278 8.0 19.3 0.00 0.00 0.00 69 1019.4
20260903123528 12 282 4.8 14.5 0.00 0.00 0.00 71 1019.3
20260903122535 11 313 8.0 14.5 0.00 0.00 0.00 74 1019.3
20260903121520 11 295 4.8 11.3 0.00 0.00 0.00 74 1019.3
20260903120527 11 314 8.0 14.5 0.00 0.00 0.00 75 1019.2
20260903115535 12 282 8.0 16.1 0.00 0.00 0.00 72 1019.2
20260903114522 11 275 8.0 14.5 0.00 0.00 0.00 75 1019.2
20260903113528 11 281 6.4 12.9 0.00 0.00 0.00 76 1019.1
20260903112535 11 294 9.7 22.5 0.00 0.00 0.00 75 1019.1
20260903111520 11 294 6.4 12.9 0.00 0.00 0.00 75 1019.0
20260903110526 12 290 9.7 16.1 0.00 0.00 0.00 72 1018.9
20260903105540 12 276 8.0 12.9 0.00 0.00 0.00 72 1018.9
20260903104518 11 285 8.0 14.5 0.00 0.00 0.00 73 1018.9
20260903103524 12 282 8.0 14.5 0.00 0.00 0.00 73 1018.7
20260903102531 11 278 9.7 16.1 0.00 0.00 0.00 74 1018.4
20260903101542 12 281 9.7 17.7 0.00 0.00 0.00 72 1018.2
20260903100529 12 269 9.7 12.9 0.00 0.00 0.00 71 1018.3
20260903095522 12 284 9.7 20.9 0.00 0.00 0.00 70 1018.2
20260903094526 12 263 9.7 16.1 0.00 0.00 0.00 71 1018.1
20260903093536 12 275 8.0 12.9 0.00 0.00 0.00 69 1018.0
20260903092536 12 263 8.0 14.5 0.00 0.00 0.00 68 1017.9
20260903091522 12 263 8.0 16.1 0.00 0.00 0.00 68 1017.7
20260903090527 12 256 8.0 12.9 0.00 0.00 0.00 69 1017.5
20260903085532 12 285 9.7 16.1 0.00 0.00 0.00 69 1017.4
20260903084517 12 281 8.0 14.5 0.00 0.00 0.00 70 1017.1
20260903083525 12 288 8.0 16.1 0.00 0.00 0.00 69 1016.9
20260903082532 12 287 6.4 11.3 0.00 0.00 0.00 68 1016.7
20260903081517 12 265 6.4 11.3 0.00 0.00 0.00 68 1016.5
20260903080523 12 278 6.4 12.9 0.00 0.00 0.00 68 1016.5
20260903075529 12 274 6.4 11.3 0.00 0.00 0.00 68 1016.3
20260903074536 12 299 8.0 16.1 0.00 0.00 0.00 68 1016.2
20260903073529 12 279 8.0 17.7 0.00 0.00 0.00 67 1016.0
20260903072528 13 282 6.4 12.9 0.00 0.00 0.00 66 1015.8
20260903071533 13 273 6.4 12.9 0.00 0.00 0.00 65 1015.8
20260903070544 13 255 9.7 17.7 0.00 0.00 0.00 65 1015.6
20260903065520 13 257 9.7 17.7 0.00 0.00 0.00 64 1015.5
20260903064526 13 273 9.7 17.7 0.00 0.00 0.00 63 1015.5
20260903063531 13 256 8.0 19.3 0.00 0.00 0.00 62 1015.5
20260903062518 13 256 9.7 17.7 0.00 0.00 0.00 61 1015.2
20260903061525 14 260 11.3 22.5 0.00 0.00 0.00 59 1015.1
20260903060538 13 252 11.3 22.5 0.00 0.00 0.00 59 1015.0
20260903055517 14 244 11.3 20.9 0.00 0.00 0.00 59 1014.9
20260903054523 15 261 11.3 22.5 0.00 0.00 0.00 57 1014.8
20260903053530 14 242 12.9 19.3 0.00 0.00 0.00 58 1014.9
20260903052536 15 254 11.3 22.5 0.00 0.00 0.00 57 1014.7
20260903051527 15 250 11.3 25.7 0.00 0.00 0.00 56 1014.5
20260903050526 15 241 12.9 22.5 0.00 0.00 0.00 56 1014.3
20260903045536 15 248 11.3 22.5 0.00 0.00 0.00 55 1014.3
20260903044530 15 254 9.7 22.5 0.00 0.00 0.00 54 1014.1
20260903043516 15 260 9.7 17.7 0.00 0.00 0.00 54 1013.8
20260903042523 15 274 9.7 22.5 0.00 0.00 0.00 54 1013.6
20260903041530 16 302 16.1 30.6 0.00 0.00 0.00 53 1013.2
20260903040523 16 288 12.9 24.1 0.00 0.00 0.00 53 1013.1
20260903035523 16 265 11.3 22.5 0.00 0.00 0.00 53 1012.8
20260903034530 16 273 14.5 32.2 0.00 0.00 0.00 52 1012.7
20260903033043 16 294 16.1 25.7 0.00 0.00 0.00 51 1012.6
20260903032025 16 275 11.3 24.1 0.00 0.00 0.00 53 1012.5
20260903031035 16 294 11.3 24.1 0.00 0.00 0.00 53 1012.4
20260903030023 16 298 14.5 27.4 0.00 0.00 0.00 52 1012.5
20260903025038 16 288 16.1 32.2 0.00 0.00 0.00 53 1012.5
20260903024019 15 277 16.1 29.0 0.00 0.00 0.00 54 1012.3
20260903023026 16 300 16.1 27.4 0.00 0.00 0.00 53 1012.4
20260903021520 16 285 16.1 20.9 0.00 0.00 0.00 53 1012.2
20260903021023 16 293 16.1 32.2 0.00 0.00 0.00 53 1012.2
20260903020030 16 312 16.1 33.8 0.00 0.00 0.00 53 1012.3
20260903015037 15 297 12.9 24.1 0.00 0.00 0.00 54 1012.2
20260903014021 16 302 16.1 37.0 0.00 0.00 0.00 52 1012.3
20260903013028 16 306 16.1 30.6 0.00 0.00 0.00 51 1012.3
20260903012033 16 300 16.1 27.4 0.00 0.00 0.00 52 1012.2
20260903011020 16 271 11.3 20.9 0.00 0.00 0.00 53 1012.2
20260903010033 16 280 9.7 24.1 0.00 0.00 0.00 53 1012.0
20260903005033 16 301 16.1 27.4 0.00 0.00 0.00 53 1011.9
20260903004019 16 287 14.5 27.4 0.00 0.00 0.00 53 1012.0